Location: Ferques
(50.8300°N, 1.7599°E)
Time: 06:57:28
(UTC+00:00)

CZ-2C R/B - Pass Details

Date: 19 May 2025
Orbit: 631 x 693 km, 98.1° (Epoch: 18 June)

Event Time Altitude Azimuth Distance (km) Brightness Sun altitude
Rises 23:13:15 0° 11° (N) 2,942 8.3 -18.7°
Reaches altitude 10° 23:15:28 10° 8° (N) 2,027 7.3 -18.8°
Maximum altitude 23:19:48 58° 289° (WNW) 738 4.0 -18.9°
Enters shadow 23:21:51 29° 222° (SW) 1,161 4.6 -18.9°
